[[{"header":{"parameterUnit":"m.s-1","parameterCategory":2,"la1":30.2992,"la2":30.254,"lo1":-89.0895,"lo2":-89.0443,"dy":0.0025,"dx":0.0025,"nx":19,"ny":19,"refTime":"2026-05-04T09:00:00:Z","depth":"0","parameterNumber":2,"parameterNumberName":"U-component_of_CURRENTS"},"data":[0,0,0,-0.2446,-0.2448,-0.251,-0.251,-0.2503,-0.2503,0,0,0,0,0,0,0,0,0,0,0,-0.2403,-0.2403,-0.2446,-0.2448,-0.251,-0.251,-0.2504,-0.2503,0,0,0,0,0,0,0,0,0,0,0,-0.2402,-0.2403,-0.2403,-0.2448,-0.251,-0.251,-0.2504,-0.2474,0,0,0,0,0,0,0,0,0,0,-0.2422,-0.2388,-0.2403,-0.2403,-0.2449,-0.251,-0.251,-0.2473,-0.2476,-0.2455,0,-0.2463,0,-0.2498,-0.2502,-0.2502,0,0,0,-0.2432,-0.2386,-0.2422,-0.2403,-0.2449,-0.251,-0.2478,-0.2475,-0.2478,-0.2458,-0.2464,-0.2465,-0.2498,-0.2502,-0.2502,-0.2539,-0.2539,0,0,-0.2428,-0.2394,-0.2421,-0.2424,-0.2462,-0.2476,-0.248,-0.2478,-0.2465,-0.2464,-0.2466,-0.2498,-0.2502,-0.2502,-0.2538,-0.2539,0,0,0,-0.2429,-0.2391,-0.2429,-0.2423,-0.245,-0.2478,-0.2483,-0.2464,-0.2483,-0.2466,-0.2498,-0.2502,-0.2502,-0.2538,-0.2539,-0.2577,0,0,0,-0.2426,-0.2394,-0.2427,-0.2405,-0.2451,-0.2468,-0.2469,-0.2482,-0.2484,-0.2498,-0.2502,-0.2502,-0.2537,-0.2538,-0.2574,-0.2571,0,0,0,-0.24,-0.2391,-0.2402,-0.2403,-0.2443,-0.247,-0.2487,-0.2483,-0.2504,-0.2502,-0.2502,-0.2537,-0.2538,-0.2572,-0.2568,-0.2537,0,0,0,-0.2359,-0.2385,-0.24,-0.2449,-0.2443,-0.2534,-0.2487,-0.253,-0.2536,-0.2502,-0.2537,-0.2539,-0.2572,-0.2567,-0.2536,-0.2292,-0.2276,0,0,-0.2379,-0.2386,-0.2425,-0.2442,-0.2525,-0.2524,-0.2589,-0.2565,-0.2543,-0.2527,-0.2529,-0.2575,-0.2568,-0.2537,-0.2363,-0.2344,0,0,0,-0.2426,-0.2434,-0.247,-0.2515,-0.2587,-0.2612,-0.2618,-0.2614,-0.26,-0.2556,-0.2589,-0.2584,-0.2562,-0.2414,-0.2401,-0.229,-0.2544,-0.2544,-0.2544,-0.236,-0.2432,-0.2484,-0.2562,-0.2616,-0.2669,-0.268,-0.2665,-0.2653,-0.2654,-0.2626,-0.2643,-0.2489,-0.2475,-0.2367,-0.265,-0.265,-0.265,-0.265,-0.2362,-0.2391,-0.247,-0.2539,-0.2602,-0.2649,-0.2707,-0.27,-0.2686,-0.2683,-0.266,-0.2477,-0.246,-0.2351,-0.2653,-0.2652,-0.2652,-0.2652,-0.2652,-0.2289,-0.2317,-0.2364,-0.2447,-0.2527,-0.2619,-0.2655,-0.2701,-0.2693,-0.2689,-0.2483,-0.2479,-0.2366,-0.2668,-0.2668,-0.2667,-0.2667,-0.2667,-0.2667,-0.2189,-0.225,-0.2249,-0.236,-0.2408,-0.2511,-0.2619,-0.2612,-0.2532,-0.2485,-0.2483,-0.2341,-0.2647,-0.2628,-0.2665,-0.2666,-0.2666,-0.2666,-0.2666,-0.2076,-0.2098,-0.2087,-0.2116,-0.2239,-0.2142,-0.2386,-0.225,-0.2296,-0.2169,-0.208,-0.2357,-0.2305,-0.2313,-0.2285,-0.2232,-0.2232,-0.2232,-0.2232,-0.1958,-0.1987,-0.1899,-0.1887,-0.193,-0.1956,-0.1652,-0.1654,-0.1702,-0.169,-0.1847,-0.1789,-0.1811,-0.1731,-0.1752,-0.1713,-0.1517,-0.1516,-0.1515,-0.1834,-0.1841,-0.1692,-0.1698,-0.1725,-0.1606,-0.1076,-0.0882,-0.1195,-0.1488,-0.175,-0.178,-0.1707,-0.175,-0.1636,-0.1674,-0.1615,0,0]},{"header":{"parameterUnit":"m.s-1","parameterCategory":2,"la1":30.2992,"la2":30.254,"lo1":-89.0895,"lo2":-89.0443,"dy":0.0025,"dx":0.0025,"nx":19,"ny":19,"refTime":"2026-05-04T09:00:00:Z","depth":"0","parameterNumber":3,"parameterNumberName":"V-component_of_CURRENTS"},"data":[0,0,0,-0.0278,-0.0276,-0.018,-0.0179,-0.0028,-0.0026,0,0,0,0,0,0,0,0,0,0,0,-0.0314,-0.0314,-0.0278,-0.0276,-0.018,-0.0179,-0.0028,-0.0026,0,0,0,0,0,0,0,0,0,0,0,-0.0314,-0.0314,-0.0313,-0.0276,-0.018,-0.0179,-0.0028,-0.0104,0,0,0,0,0,0,0,0,0,0,-0.02,-0.0244,-0.0314,-0.0313,-0.0275,-0.018,-0.0179,-0.0108,-0.01,-0.0068,0,-0.0064,0,-0.0045,-0.0017,-0.0016,0,0,0,-0.0262,-0.0251,-0.0226,-0.0313,-0.0275,-0.018,-0.0219,-0.0104,-0.0094,-0.0056,-0.0062,-0.0056,-0.0043,-0.0016,-0.0015,0.0058,0.0057,0,0,-0.0267,-0.029,-0.0233,-0.0221,-0.0263,-0.0222,-0.0216,-0.0098,-0.0092,-0.0061,-0.0052,-0.004,-0.0015,-0.0014,0.0058,0.0058,0,0,0,-0.0292,-0.0294,-0.0272,-0.0227,-0.0214,-0.022,-0.0213,-0.0097,-0.0091,-0.0051,-0.0039,-0.0014,-0.0012,0.0058,0.0058,-0.0016,0,0,0,-0.0295,-0.0309,-0.0274,-0.0286,-0.0217,-0.0158,-0.0215,-0.0099,-0.0085,-0.0039,-0.0014,-0.0011,0.0059,0.0058,-0.0013,-0.0027,0,0,0,-0.0316,-0.0311,-0.0305,-0.0288,-0.0252,-0.016,-0.0146,-0.0095,-0.0078,-0.0016,-0.0011,0.0059,0.0058,-0.0011,-0.0024,0.0054,0,0,0,-0.0335,-0.0374,-0.0305,-0.0336,-0.0253,-0.0232,-0.0146,-0.0115,-0.0073,-0.0013,0.0058,0.0058,-0.001,-0.0021,0.0055,0.026,0.0274,0,0,-0.0407,-0.0383,-0.0402,-0.0339,-0.0349,-0.0243,-0.0227,-0.0133,-0.0067,0.0025,0.0027,-0.0014,-0.0023,0.0054,0.0224,0.024,0,0,0,-0.044,-0.0456,-0.0446,-0.0426,-0.0374,-0.0301,-0.021,-0.0152,-0.0067,-0.0045,-0.0006,-0.0009,0.0043,0.0168,0.0179,0.0386,0.0055,0.0055,0.0055,-0.0552,-0.0522,-0.0552,-0.0504,-0.0462,-0.0341,-0.0276,-0.0174,-0.0115,-0.009,-0.0064,-0.0049,0.0079,0.0092,0.0299,-0.0067,-0.0067,-0.0067,-0.0068,-0.067,-0.0678,-0.0623,-0.0648,-0.0537,-0.0493,-0.0322,-0.0255,-0.0122,-0.0107,-0.0053,0.0088,0.0101,0.0318,-0.0072,-0.0071,-0.0071,-0.007,-0.007,-0.0747,-0.0741,-0.0762,-0.0765,-0.0702,-0.0573,-0.0416,-0.0318,-0.0183,-0.014,0.0091,0.0096,0.0292,-0.0085,-0.0085,-0.0085,-0.0085,-0.0085,-0.0084,-0.0792,-0.081,-0.0879,-0.0871,-0.0862,-0.0736,-0.0471,-0.0299,-0.0051,0.0057,0.006,0.034,-0.0052,-0.0045,-0.0081,-0.0081,-0.0082,-0.0082,-0.0082,-0.0815,-0.0868,-0.0972,-0.1011,-0.0949,-0.0712,-0.047,0.0056,0.0194,0.0374,0.0582,0.0201,0.0271,0.0265,0.0282,0.0333,0.0333,0.0333,0.0333,-0.0827,-0.0864,-0.0991,-0.1048,-0.0959,-0.069,-0.0054,0.0439,0.0802,0.0932,0.0864,0.0912,0.0886,0.0993,0.097,0.1001,0.1234,0.1235,0.1236,-0.0807,-0.0878,-0.0934,-0.1025,-0.0939,-0.0533,0.0194,0.0881,0.1238,0.1284,0.1108,0.107,0.1142,0.1084,0.125,0.1201,0.125,0,0]}],[{"header":{"parameterUnit":"m.s-1","parameterCategory":2,"la1":30.2992,"la2":30.254,"lo1":-89.0895,"lo2":-89.0443,"dy":0.0025,"dx":0.0025,"nx":19,"ny":19,"refTime":"2026-05-04T09:00:00:Z","depth":"2","parameterNumber":2,"parameterNumberName":"U-component_of_CURRENTS"},"data":[0,0,0,-0.2388,-0.239,-0.2453,-0.2453,-0.245,-0.245,0,0,0,0,0,0,0,0,0,0,0,-0.2347,-0.2347,-0.2388,-0.239,-0.2453,-0.2453,-0.245,-0.245,0,0,0,0,0,0,0,0,0,0,0,-0.2347,-0.2347,-0.2348,-0.239,-0.2453,-0.2453,-0.245,-0.2419,0,0,0,0,0,0,0,0,0,0,-0.2367,-0.2335,-0.2347,-0.2348,-0.2391,-0.2453,-0.2453,-0.2419,-0.2421,-0.2402,0,-0.2412,0,-0.2444,-0.2449,-0.2449,0,0,0,-0.2375,-0.2333,-0.2368,-0.2348,-0.2391,-0.2453,-0.242,-0.2421,-0.2423,-0.2405,-0.2412,-0.2413,-0.2444,-0.2449,-0.2449,-0.2487,-0.2487,0,0,-0.2371,-0.234,-0.2366,-0.237,-0.2407,-0.2418,-0.2422,-0.2423,-0.2413,-0.2412,-0.2414,-0.2444,-0.2449,-0.2449,-0.2486,-0.2487,0,0,0,-0.2371,-0.2337,-0.2373,-0.2369,-0.2395,-0.2421,-0.2425,-0.2412,-0.2429,-0.2414,-0.2444,-0.2449,-0.2449,-0.2486,-0.2487,-0.2526,0,0,0,-0.2368,-0.2339,-0.2371,-0.2351,-0.2395,-0.2414,-0.2414,-0.2429,-0.2431,-0.2444,-0.2449,-0.2449,-0.2485,-0.2486,-0.2524,-0.2521,0,0,0,-0.2344,-0.2337,-0.2348,-0.235,-0.2389,-0.2416,-0.2432,-0.243,-0.2449,-0.2449,-0.2449,-0.2485,-0.2486,-0.2522,-0.2519,-0.2489,0,0,0,-0.2305,-0.2334,-0.2347,-0.2395,-0.2389,-0.2475,-0.2432,-0.2474,-0.2481,-0.2449,-0.2485,-0.2487,-0.2521,-0.2517,-0.2488,-0.2261,-0.2246,0,0,-0.2329,-0.2335,-0.2373,-0.2388,-0.2468,-0.2465,-0.2529,-0.2509,-0.2488,-0.2475,-0.2476,-0.2524,-0.2519,-0.2488,-0.233,-0.2313,0,0,0,-0.2375,-0.2385,-0.2418,-0.2463,-0.2528,-0.2552,-0.2559,-0.2555,-0.2545,-0.2502,-0.2538,-0.2532,-0.2512,-0.2374,-0.2362,-0.2492,-0.2492,-0.2492,-0.2492,-0.232,-0.2387,-0.2438,-0.251,-0.2561,-0.261,-0.2621,-0.2608,-0.2596,-0.26,-0.2575,-0.2593,-0.2449,-0.2436,-0.2598,-0.2598,-0.2598,-0.2598,-0.2598,-0.2328,-0.2337,-0.243,-0.2498,-0.2555,-0.2602,-0.2653,-0.2647,-0.2634,-0.2631,-0.2609,-0.2436,-0.2424,-0.2601,-0.2601,-0.26,-0.26,-0.26,-0.26,-0.2259,-0.2262,-0.2335,-0.2418,-0.2494,-0.2577,-0.2614,-0.2652,-0.2644,-0.2641,-0.2447,-0.2443,-0.2579,-0.262,-0.262,-0.262,-0.262,-0.262,-0.262,-0.2111,-0.2191,-0.2223,-0.2334,-0.2384,-0.2478,-0.2584,-0.258,-0.25,-0.2453,-0.245,-0.2599,-0.2598,-0.258,-0.2618,-0.2618,-0.2619,-0.2619,-0.2619,-0.196,-0.201,-0.2048,-0.2104,-0.2224,-0.2222,-0.2401,-0.2308,-0.2322,-0.2212,-0.2325,-0.2333,-0.2282,-0.2289,-0.2263,-0.2217,-0.2217,-0.2217,-0.2217,-0.1815,-0.1862,-0.1853,-0.1897,-0.1945,-0.2075,-0.1957,-0.1942,-0.1956,-0.1932,-0.1945,-0.1902,-0.1923,-0.1852,-0.1869,-0.1834,-0.1677,-0.1676,-0.1676,-0.1687,-0.1723,-0.165,-0.1724,-0.1764,-0.1841,-0.1643,-0.1449,-0.1421,-0.1663,-0.1943,-0.2163,-0.2133,-0.2153,-0.2071,-0.2088,-0.2043,0,0]},{"header":{"parameterUnit":"m.s-1","parameterCategory":2,"la1":30.2992,"la2":30.254,"lo1":-89.0895,"lo2":-89.0443,"dy":0.0025,"dx":0.0025,"nx":19,"ny":19,"refTime":"2026-05-04T09:00:00:Z","depth":"2","parameterNumber":3,"parameterNumberName":"V-component_of_CURRENTS"},"data":[0,0,0,-0.0334,-0.0332,-0.0233,-0.0232,-0.0079,-0.0078,0,0,0,0,0,0,0,0,0,0,0,-0.0371,-0.0371,-0.0334,-0.0332,-0.0233,-0.0232,-0.0079,-0.0078,0,0,0,0,0,0,0,0,0,0,0,-0.0371,-0.0371,-0.0371,-0.0332,-0.0233,-0.0232,-0.008,-0.0158,0,0,0,0,0,0,0,0,0,0,-0.0256,-0.0301,-0.0371,-0.0371,-0.0331,-0.0233,-0.0232,-0.0162,-0.0153,-0.0121,0,-0.0116,0,-0.0097,-0.0068,-0.0068,0,0,0,-0.0318,-0.0309,-0.0282,-0.0371,-0.033,-0.0233,-0.0274,-0.0157,-0.0147,-0.0109,-0.0114,-0.0108,-0.0094,-0.0067,-0.0067,0.0025,0.0025,0,0,-0.0324,-0.0348,-0.0289,-0.0276,-0.0318,-0.0277,-0.0271,-0.0151,-0.0146,-0.0113,-0.0104,-0.0092,-0.0066,-0.0065,0.0025,0.0025,0,0,0,-0.0349,-0.0352,-0.0328,-0.0282,-0.0268,-0.0275,-0.0267,-0.0151,-0.0143,-0.0103,-0.009,-0.0065,-0.0064,0.0025,0.0025,-0.0054,0,0,0,-0.0351,-0.0367,-0.0331,-0.0343,-0.0271,-0.0212,-0.027,-0.0152,-0.0137,-0.0091,-0.0065,-0.0062,0.0025,0.0025,-0.0051,-0.0075,0,0,0,-0.0373,-0.0369,-0.0362,-0.0345,-0.0308,-0.0214,-0.0199,-0.0148,-0.013,-0.0068,-0.0062,0.0025,0.0025,-0.0049,-0.0072,-0.001,0,0,0,-0.0394,-0.0428,-0.0363,-0.0386,-0.0309,-0.0277,-0.0199,-0.0163,-0.0119,-0.0065,0.0025,0.0025,-0.0049,-0.0069,-0.001,0.013,0.0138,0,0,-0.0459,-0.0436,-0.045,-0.039,-0.0389,-0.0289,-0.0263,-0.0173,-0.0105,-0.0009,-0.0007,-0.0052,-0.0071,-0.001,0.012,0.0128,0,0,0,-0.0485,-0.0499,-0.0486,-0.0462,-0.0404,-0.0334,-0.0242,-0.0184,-0.0099,-0.0081,-0.0033,-0.0042,-0.0001,0.0085,0.0091,0.0024,0.0024,0.0024,0.0024,-0.0595,-0.056,-0.0584,-0.0531,-0.0485,-0.0363,-0.03,-0.0198,-0.0137,-0.011,-0.0094,-0.0084,0.0005,0.0012,-0.0083,-0.0083,-0.0083,-0.0084,-0.0084,-0.0707,-0.0732,-0.0655,-0.0672,-0.0562,-0.0514,-0.0344,-0.0279,-0.0154,-0.0131,-0.0087,0.0012,0.0015,-0.009,-0.0088,-0.0088,-0.0087,-0.0087,-0.0086,-0.0789,-0.0807,-0.0798,-0.0796,-0.0733,-0.0602,-0.0466,-0.0359,-0.0224,-0.0187,-0.0008,-0.0004,-0.0102,-0.0141,-0.0141,-0.0141,-0.0141,-0.0141,-0.0141,-0.0898,-0.0892,-0.0937,-0.0916,-0.0906,-0.0795,-0.0539,-0.0385,-0.0161,-0.0058,-0.0055,-0.0101,-0.0099,-0.0101,-0.0138,-0.0139,-0.0139,-0.0139,-0.0139,-0.1053,-0.1027,-0.1092,-0.1107,-0.1042,-0.0954,-0.0661,-0.0222,-0.0042,0.0099,0.0052,0.0047,0.0107,0.0105,0.011,0.013,0.013,0.013,0.013,-0.1156,-0.1147,-0.1194,-0.1197,-0.1134,-0.1006,-0.0656,-0.0223,0.0094,0.0132,0.013,0.0132,0.0124,0.0184,0.018,0.0186,0.0225,0.0225,0.0224,-0.1272,-0.1249,-0.1273,-0.1218,-0.1158,-0.1031,-0.0748,-0.0264,0.0077,0.0215,0.0009,0.0163,0.0165,0.0152,0.0247,0.0238,0.025,0,0]}],[{"header":{"parameterUnit":"m.s-1","parameterCategory":2,"la1":30.2992,"la2":30.254,"lo1":-89.0895,"lo2":-89.0443,"dy":0.0025,"dx":0.0025,"nx":19,"ny":19,"refTime":"2026-05-04T09:00:00:Z","depth":"4","parameterNumber":2,"parameterNumberName":"U-component_of_CURRENTS"},"data":[0,0,0,-0.1823,-0.1827,-0.1982,-0.1982,-0.2065,-0.2066,0,0,0,0,0,0,0,0,0,0,0,-0.1771,-0.1772,-0.1823,-0.1827,-0.1982,-0.1983,-0.2065,-0.2066,0,0,0,0,0,0,0,0,0,0,0,-0.177,-0.1772,-0.1773,-0.1828,-0.1982,-0.1983,-0.2065,-0.1975,0,0,0,0,0,0,0,0,0,0,-0.1839,-0.1808,-0.1771,-0.1773,-0.1829,-0.1982,-0.1983,-0.1972,-0.1981,-0.1964,0,-0.2001,0,-0.2036,-0.2069,-0.2069,0,0,0,-0.1821,-0.1802,-0.1845,-0.1774,-0.183,-0.1981,-0.191,-0.1978,-0.1988,-0.1974,-0.2003,-0.2007,-0.2037,-0.2069,-0.207,-0.2144,-0.2144,0,0,-0.1813,-0.1793,-0.1839,-0.1852,-0.1886,-0.1905,-0.1915,-0.1985,-0.1997,-0.2003,-0.2009,-0.2038,-0.207,-0.207,-0.2143,-0.2144,0,0,0,-0.1792,-0.1786,-0.1831,-0.1847,-0.1885,-0.191,-0.1921,-0.1994,-0.2011,-0.2011,-0.2039,-0.207,-0.2071,-0.2143,-0.2144,-0.2188,0,0,0,-0.1787,-0.1775,-0.1827,-0.1816,-0.1885,-0.1958,-0.1929,-0.2006,-0.2015,-0.2039,-0.207,-0.2071,-0.2142,-0.2143,-0.2186,-0.2198,0,0,0,-0.1761,-0.1772,-0.1796,-0.1814,-0.1885,-0.1958,-0.1979,-0.2009,-0.2032,-0.2069,-0.2071,-0.2142,-0.2143,-0.2184,-0.2194,-0.2159,0,0,0,-0.1726,-0.1775,-0.1796,-0.1864,-0.1883,-0.198,-0.1979,-0.2053,-0.209,-0.207,-0.2143,-0.2144,-0.2183,-0.2192,-0.2158,-0.1874,0,0,0,-0.1765,-0.1779,-0.1821,-0.1843,-0.1936,-0.1957,-0.2042,-0.2091,-0.2094,-0.2109,-0.2112,-0.2187,-0.2194,-0.2158,-0.1938,0,0,0,0,-0.1818,-0.1845,-0.1878,-0.1942,-0.2006,-0.2062,-0.2109,-0.2126,-0.2171,-0.2124,-0.2195,-0.2198,-0.2174,-0.2007,-0.2149,-0.2148,-0.2148,-0.2148,-0.2148,-0.1808,-0.1863,-0.1932,-0.2004,-0.2063,-0.2137,-0.2175,-0.2202,-0.2205,-0.2233,-0.2241,-0.2255,-0.2083,-0.2252,-0.2252,-0.2253,-0.2253,-0.2253,-0.2253,-0.1838,-0.1854,-0.1956,-0.2044,-0.2113,-0.2183,-0.2245,-0.226,-0.2281,-0.229,-0.2263,-0.2076,-0.2258,-0.2257,-0.2256,-0.2256,-0.2255,-0.2255,-0.2255,-0.1782,-0.1791,-0.1893,-0.2011,-0.2119,-0.2207,-0.2229,-0.2299,-0.2312,-0.2315,-0.209,-0.2264,-0.2249,-0.2292,-0.2292,-0.2292,-0.2292,-0.2292,-0.2292,-0.1642,-0.1745,-0.1803,-0.1962,-0.2026,-0.2111,-0.2223,-0.22,-0.2244,-0.2099,-0.2316,-0.2266,-0.2265,-0.225,-0.229,-0.2291,-0.2291,-0.2291,-0.2291,-0.1509,-0.1572,-0.1633,-0.1708,-0.1829,-0.188,-0.2056,-0.1985,-0.1929,-0.1832,-0.1957,-0.1974,-0.1916,-0.1923,-0.1894,-0.183,-0.1827,-0.1823,0,-0.1375,-0.1425,-0.1448,-0.1487,-0.1504,-0.1689,-0.1576,-0.1612,-0.1658,-0.1608,-0.1882,-0.2023,-0.2034,-0.1971,-0.1971,-0.1936,0,0,0,-0.1269,-0.1292,-0.1249,-0.1316,-0.1328,-0.1358,-0.1518,-0.1448,-0.1706,-0.1574,-0.1734,-0.1757,-0.2064,-0.2287,-0.2238,-0.2236,-0.2208,0,0]},{"header":{"parameterUnit":"m.s-1","parameterCategory":2,"la1":30.2992,"la2":30.254,"lo1":-89.0895,"lo2":-89.0443,"dy":0.0025,"dx":0.0025,"nx":19,"ny":19,"refTime":"2026-05-04T09:00:00:Z","depth":"4","parameterNumber":3,"parameterNumberName":"V-component_of_CURRENTS"},"data":[0,0,0,-0.0267,-0.0266,-0.0188,-0.0187,-0.0048,-0.0047,0,0,0,0,0,0,0,0,0,0,0,-0.03,-0.03,-0.0268,-0.0266,-0.0188,-0.0187,-0.0049,-0.0047,0,0,0,0,0,0,0,0,0,0,0,-0.03,-0.03,-0.0299,-0.0266,-0.0188,-0.0187,-0.0049,-0.0115,0,0,0,0,0,0,0,0,0,0,-0.0195,-0.0239,-0.03,-0.0299,-0.0265,-0.0188,-0.0187,-0.0118,-0.0111,-0.0076,0,-0.0076,0,-0.006,-0.0038,-0.0037,0,0,0,-0.0254,-0.0246,-0.0221,-0.0299,-0.0265,-0.0188,-0.022,-0.0114,-0.0106,-0.0066,-0.0074,-0.0069,-0.0057,-0.0037,-0.0036,0.0091,0.0091,0,0,-0.0259,-0.0283,-0.0227,-0.0216,-0.0258,-0.0222,-0.0217,-0.0109,-0.0108,-0.0074,-0.0066,-0.0055,-0.0036,-0.0035,0.009,0.0091,0,0,0,-0.0279,-0.0287,-0.0265,-0.0222,-0.0211,-0.022,-0.0215,-0.0112,-0.0105,-0.0064,-0.0053,-0.0035,-0.0034,0.009,0.009,0.0008,0,0,0,-0.0281,-0.0299,-0.0267,-0.028,-0.0214,-0.0167,-0.0221,-0.0112,-0.0099,-0.0054,-0.0035,-0.0032,0.0089,0.009,0.0009,-0.0041,0,0,0,-0.0301,-0.0301,-0.0296,-0.0282,-0.0252,-0.0169,-0.0154,-0.0109,-0.0093,-0.0037,-0.0032,0.0089,0.009,0.001,-0.0038,-0.0023,0,0,0,-0.0322,-0.0341,-0.0297,-0.0303,-0.0253,-0.0202,-0.0155,-0.0112,-0.007,-0.0035,0.0089,0.009,0.0011,-0.0036,-0.0022,-0.0133,0,0,0,-0.0361,-0.0346,-0.0346,-0.0305,-0.0284,-0.0211,-0.0171,-0.0102,-0.0039,0.0058,0.0061,0.0009,-0.0038,-0.0023,-0.0078,0,0,0,0,-0.0367,-0.0378,-0.0359,-0.0336,-0.0273,-0.0225,-0.0143,-0.0094,-0.0016,-0.0011,0.005,0.0024,0.0036,-0.0022,0.0095,0.0095,0.0094,0.0094,0.0094,-0.0458,-0.0419,-0.0428,-0.0377,-0.033,-0.0226,-0.0179,-0.0092,-0.0028,-0.0001,-0.0012,-0.0017,-0.008,0.0033,0.0033,0.0033,0.0032,0.0032,0.0032,-0.0539,-0.0554,-0.0494,-0.05,-0.0415,-0.0368,-0.0221,-0.0167,-0.0074,-0.0032,-0.0016,-0.0068,0.0025,0.0026,0.0027,0.0028,0.0029,0.0029,0.003,-0.0612,-0.0621,-0.0623,-0.0626,-0.0588,-0.0475,-0.0419,-0.0288,-0.0164,-0.0147,-0.0157,-0.0054,-0.0081,-0.0122,-0.0122,-0.0122,-0.0122,-0.0122,-0.0122,-0.0701,-0.07,-0.0763,-0.0753,-0.0765,-0.071,-0.0534,-0.0451,-0.0291,-0.0258,-0.016,-0.0068,-0.0063,-0.0086,-0.0125,-0.0124,-0.0124,-0.0124,-0.0124,-0.0803,-0.081,-0.0908,-0.095,-0.0971,-0.0914,-0.0749,-0.0548,-0.047,-0.0394,-0.0292,-0.0283,-0.0257,-0.0247,-0.0276,-0.0373,-0.0374,-0.0376,0,-0.0878,-0.0885,-0.103,-0.1118,-0.1151,-0.1035,-0.0933,-0.0775,-0.0565,-0.0589,-0.0483,-0.0378,-0.0368,-0.0347,-0.034,-0.038,0,0,0,-0.095,-0.0985,-0.1101,-0.1187,-0.1232,-0.1059,-0.0899,-0.084,-0.0609,-0.0518,-0.0416,-0.0406,-0.0272,-0.0132,-0.0069,-0.0063,-0.0096,0,0]}]]